Regional Weather Roundup
Issued by NWS

Home | Current Version | Previous Version | Graphics & Text | Print | Product List | Glossary On
Versions: 1 2 3 4 5 6 7 8 9 10 11 12 13 14 15 16 17 18 19 20 21 22 23 24 25 26 27 28 29 30 31 32 33 34 35 36 37 38 39 40 41 42 43 44 45 46 47 48 49 50
000
ASUS43 KLOT 300112
RWRIL

ILLINOIS REGIONAL WEATHER ROUNDUP
NATIONAL WEATHER SERVICE CHICAGO/ROMEOVILLE IL
800 PM CDT WED JUL 29 2015

NOTE: "FAIR" INDICATES FEW OR NO CLOUDS BELOW 12,000 FEET WITH NO
SIGNIFICANT WEATHER AND/OR OBSTRUCTIONS TO VISIBILITY.

* THESE STATIONS ARE NOT UNDER NWS QUALITY CONTROL. THEY ALSO MAY NOT
  REPORT WEATHER SUCH AS PRECIPITATION OR FOG.

ILZ001-002-007-009-015-016-024-300200-
NORTHWEST ILLINOIS

CITY           SKY/WX    TMP DP  RH WIND       PRES   REMARKS
MOLINE         CLEAR     79  58  48 W9        30.04R HX  80
STERLING*      CLEAR     75  61  60 W7        30.02R
SAVANNA*       CLEAR     79  55  43 W7        30.02R
$$

ILZ003-004-008-010-011-017-018-300200-
NORTH CENTRAL ILLINOIS

CITY           SKY/WX    TMP DP  RH WIND       PRES   REMARKS
ROCKFORD       CLEAR     76  55  48 W7        30.01R
FREEPORT*      CLEAR     74  58  58 W7        30.03R
ROCHELLE*      CLEAR     74  60  60 W7        30.02R
DE KALB*       CLEAR     76  59  54 W9        30.02R
PERU*          CLEAR     74  61  63 W7        30.03S
$$

ILZ005-006-012>014-019>023-300200-
NORTHEAST ILLINOIS

CITY           SKY/WX    TMP DP  RH WIND       PRES   REMARKS
CHICAGO-OHARE  PTCLDY    80  52  37 W18       29.98R HX  80
CHICAGO-MIDWAY PTCLDY    82  53  36 W10G21    29.98R HX  81
AURORA         CLEAR     72  60  66 W8        30.01R
LANSING*       CLEAR     79  52  39 W9        29.99R
JOLIET*        CLEAR     79  59  50 W6        30.00S HX  80
WAUKEGAN       CLEAR     77  54  44 VRB5      29.95S
DUPAGE AIRPORT CLEAR     77  56  48 W8        29.99R
KANKAKEE*      CLEAR     76  64  67 CALM      30.02R
WHEELING       CLEAR     81  51  35 W10       29.98R HX  80
MORRIS*        CLEAR     75  62  64 W6        30.00R
ROMEOVILLE*    CLEAR     76  55  48 W9        30.00R
NORTHERLY ISL    N/A     81  49  32 W8          N/A  HX  80
$$

LMZ740>746-300200-
SOUTHERN LAKE MICHIGAN

STATION/POSITION SKY/WX   TEMP    WIND        PRES    VSBY  WAVE
                          AIR SEA DIR/SP/G                  HT/PER
                          (F)     (DEG/KT/KT) (MB)    (MI)  (FT/S)
HARRISON CRIB              82     280/ 19/ 22   N/A
BURNHAM HARBOR             81     270/ 10/ 18   N/A
CALUMET HARBOR             83                   N/A
BURNS HARBOR               80     280/  9/ 11 1014.9S
MICHIGAN CITY              78     240/  5/  5   N/A
MICHIGAN CITY 6N           78 76  300/  8/ 10   N/A           1
ST. JOSEPH                 77 75  340/  8/ 10   N/A           1/ 2
$$

ILZ025>027-034>036-040-047-049-050-058-095>099-300200-
WEST-CENTRAL ILLINOIS

CITY           SKY/WX    TMP DP  RH WIND       PRES   REMARKS
QUINCY         CLEAR     77  62  59 NW5       30.09R
GALESBURG*     CLEAR     75  63  65 W5        30.07R
MACOMB*        PTCLDY    76  66  71 W3        30.09S
JACKSONVILLE*  CLEAR     76  64  67 NW3       30.08R
PITTSFIELD*    CLEAR     78  64  61 W3        30.10R HX  80
$$

ILZ028>032-037-038-041>044-048-051>054-059>061-300200-
CENTRAL ILLINOIS

CITY           SKY/WX    TMP DP  RH WIND       PRES   REMARKS
PONTIAC        CLEAR     74  67  79 W6        30.04R
BLOOMINGTON    CLEAR     77  60  55 NW10      30.06S
DECATUR        CLEAR     79  53  40 NW13      30.05R
PEORIA         CLEAR     79  61  53 W6        30.05R HX  80
LACON*         CLEAR     77  62  58 W5        30.03R
LINCOLN*       CLEAR     78  57  48 CALM      30.05R
SPRINGFIELD    CLEAR     77  60  55 NW7       30.06R
TAYLORVILLE    CLEAR     72  64  78 NW5       30.06R
$$

ILZ033-039-045-046-055>057-062-063-300200-
EAST-CENTRAL ILLINOIS

CITY           SKY/WX    TMP DP  RH WIND       PRES   REMARKS
CHAMPAIGN      CLEAR     73  63  70 NW3       30.04R
DANVILLE*      MOCLDY    74  65  72 NW7       30.00R
RANTOUL*       CLEAR     77  63  60 NW6       30.03S
MATTOON        PTCLDY    77  61  57 NW10      30.03R
PARIS*         MOCLDY    76  64  64 NW7       30.03R
$$

ILZ079-100>102-300200-
SOUTHWEST ILLINOIS

CITY           SKY/WX    TMP DP  RH WIND       PRES   REMARKS
ALTON          PTCLDY    79  64  61 NW9       30.07R HX  81
BELLEVILLE     PTCLDY    82  68  63 VRB5      30.04R HX  84
CAHOKIA*       PTCLDY    84  65  52 N13       30.05R HX  86
SPARTA*        MOCLDY    84  73  69 N9        30.04R HX  90
$$

ILZ064>066-069>071-074>076-080>082-084>086-088>090-092>094-300200-
SOUTH-CENTRAL ILLINOIS

CITY           SKY/WX    TMP DP  RH WIND       PRES   REMARKS
CARBONDALE     MOCLDY    84  75  74 N6        30.03R HX  92
CAIRO*         MOCLDY    84  77  79 N5        30.01R HX  94
EFFINGHAM*     PTCLDY    81  64  55 NW12      30.04S HX  83
MARION         CLOUDY    86  77  74 CALM      30.03R HX  97
MT. VERNON     CLOUDY    84  72  65 N6        30.03R HX  89
CENTRALIA*     MOCLDY    82  67  59 N9        30.04R HX  84
SALEM*         MOCLDY    83  69  62 N6        30.04R HX  87
METROPOLIS*    CLOUDY    83  81  93 NW3       30.01S HX  97
$$

ILZ067-068-072-073-078-083-087-091-300200-
SOUTHEAST ILLINOIS

CITY           SKY/WX    TMP DP  RH WIND       PRES   REMARKS
LAWRENCEVILLE  CLOUDY    81  71  71 NW13      30.00R HX  85
FLORA*         CLOUDY    82  69  65 N9        30.03R HX  85
FAIRFIELD*     CLOUDY    83  76  79 NW6       30.01R HX  92
HARRISBURG*    CLOUDY    84  77  79 NW5       30.02R HX  94
ROBINSON*      CLOUDY    80  69  69 NW6       30.02R HX  82
CARMI*           N/A    N/A N/A N/A MISG        N/A
$$

ABBREVIATIONS USED IN REMARKS
   TC - TEMPERATURE IN CELSIUS
  WCI - WIND CHILL INDEX
   HX - HEAT INDEX
  VSB - VISIBILITY
$$



USA.gov is the U.S. government's official web portal to all federal, state and local government web resources and services.